Das Wetter in  D-61279 Heinzenberg / Taunus





Wetter Minimum- & Maximum-Werte im Juli 2010

Standort: Heinzenberg / Taunus - Höhe 297 m         8° 24' 1" Ost 50° 21' 51" Nord
(   3-stündige Aktualisierung    letzte Aktualisierung um 20:46 am 31.07.2010  )


Messgrösse

Minimum

Maximum

Durchschnitt

Temperatur West /
Luftfeuchte West
Anklicken für Monats-Diagramm

6,7 °C

06:18
25.07.2010

25 %

14:19
16.07.2010

36,4 °C

16:44
10.07.2010

98 %

01:02
24.07.2010

Temp

20,4 °C

Feuchte

67 %

Temperatur Ost /
Luftfeuchte Ost
Anklicken für Monats-Diagramm

6,9 °C

06:38
25.07.2010

--

--
--

35,6 °C

16:49
10.07.2010

--

--
--

20,2 °C

--

Luftdruck Anklicken für Monats-Diagramm

1001,7 hPa

18:42
14.07.2010

1028,7 hPa

09:01
18.07.2010

1016,6 hPa

Taupunkt

5,2 °C

17:45
06.07.2010

20,9 °C

09:31
12.07.2010

13,1 °C

Windchill
( gefühlte Temperatur )

6,7 °C

06:18
25.07.2010

36,4 °C

16:44
10.07.2010

19,6 °C

Windgeschwindigkeit /
Windrichtung
Anklicken für Monats-Diagramm

---

54,2 km/h / SO

20:12
14.07.2010

7,6 km/h
W-SW

Helligkeit /
Sonnenschein
Anklicken für Monats-Diagramm
Anklicken für Monats-Diagramm

Sonnenschein:

255:55 Stunden

Max: 14:10 Std am
08.07.2010

122 klux

14:03
30.07.2010

40 klux

Solarstrahlung Anklicken für Monats-Diagramm

---

834 W/m²

14:03
30.07.2010

291 W/m²

Regenmenge
    Juli 2010
Anklicken für Monats-Diagramm

Insgesamt 67,3 l/m²

in 37:12 Stunden
an 15 Tagen

19,2 l/m²

23:37
23.07.2010

Gesamtmenge

67,3 l/m²

Regen-Tage
    Juli 2010
Anklicken für Monats-Diagramm

>   0 mm/Tag

>   2 mm/Tag

>   5 mm/Tag

> 10 mm/Tag

> 20 mm/Tag

15 Tage     
7 Tage     
5 Tage     
3 Tage     
0 Tage     

Eisige Tage Juli 2010 / 2009

Tmin ≤ -10°C     

0 Tage

/

0 Tage

Eistage Juli 2010 / 2009

Tmax <     0°C     

0 Tage

/

0 Tage

Frosttage Juli 2010 / 2009

Tmin ≤     0°C     

0 Tage

/

0 Tage

Kalte Tage Juli 2010 / 2009

Tmax <   10°C     

0 Tage

/

0 Tage

Warme Tage Juli 2010 / 2009

Tmax ≥   20°C     

30 Tage

/

27 Tage

Sommertage Juli 2010 / 2009

Tmax ≥   25°C     

21 Tage

/

14 Tage

Heisse Tage Juli 2010 / 2009

Tmax ≥   30°C     

12 Tage

/

  1 Tag


Monatsdiagramm Juli 2010

Die Kurven zeigen den Durchschnittswert des jeweiligen Tages an


Wetter-Monatsübersicht Juli 2010
Datum
  Temperatur
   Luftdruck
   Wind
  Regen
   Luftfeuchte
   Helligkeit

Sonnen-
schein

Ø
Temp.

Min.
Temp.

Max.
Temp.

Ø
Luftdruck

Min.
Luftdruck

Max.
Luftdruck

Ø-Geschw.
Haupt-Richtg.

Max.
Wind

Menge /
Dauer

Ø
Feuchte

Min.
Feuchte

Max.
Feuchte

Ø
Helligkeit

Max.
Helligkeit

1.
Juli
21,6 °C13,1 °C
06:25
29,9 °C
16:05
1016,8 hPa1014,7 hPa
17:10
1019,2 hPa
01:05
2,9 km/h
W-SW
16,3 km/h
15:20  
---
61 %27 %
16:10
88 %
07:30
44,6 klux99,2 klux
14:40
9:05 Std 
2.
Juli
23,9 °C14,2 °C
06:11
33,8 °C
18:16
1015,3 hPa1013,1 hPa
18:16
1017,4 hPa
06:16
4,9 km/h
W-SW
21,4 km/h
17:16  
---
60 %26 %
16:36
88 %
07:06
48 klux106 klux
13:56
12:01 Std 
3.
Juli
23,9 °C16,0 °C
06:02
34,4 °C
17:27
1016,1 hPa1013,0 hPa
17:27
1018,7 hPa
23:38
4,8 km/h
W-NW
35,8 km/h
18:42  
---
25 Minuten
67 %29 %
12:37
92 %
23:48
43 klux96 klux
13:57
9:55 Std 
4.
Juli
22,2 °C18,3 °C
05:18
29,4 °C
18:23
1018,9 hPa1016,7 hPa
18:23
1020,8 hPa
09:38
5,4 km/h
W-NW
17,6 km/h
14:18  
---
78 %46 %
18:03
95 %
03:08
30,0 klux111,0 klux
13:53
4:00 Std 
5.
Juli
20,5 °C16,8 °C
06:14
26,1 °C
13:44
1019,1 hPa1017,0 hPa
15:54
1021,2 hPa
23:50
12,3 km/h
W-NW
28,6 km/h
13:14  
---
64 %38 %
10:49
87 %
01:34
42 klux114 klux
14:09
8:15 Std 
6.
Juli
17,3 °C13,0 °C
23:56
22,4 °C
16:35
1022,9 hPa1020,2 hPa
00:50
1024,8 hPa
23:56
9,6 km/h
NW
28,8 km/h
12:45  
---
64 %34 %
17:45
92 %
05:59
39 klux113 klux
12:45
7:05 Std 
7.
Juli
18,4 °C8,7 °C
05:41
29,2 °C
18:26
1022,8 hPa1019,8 hPa
18:26
1025,2 hPa
07:21
4,7 km/h
W
23,4 km/h
12:51  
---
59 %28 %
17:01
88 %
06:26
50 klux106 klux
13:26
13:40 Std 
8.
Juli
22,5 °C13,6 °C
02:37
32,4 °C
18:27
1020,0 hPa1017,4 hPa
18:27
1022,5 hPa
01:22
6,9 km/h
W-SW
24,1 km/h
11:57  
---
54 %26 %
15:52
81 %
07:22
51 klux90 klux
13:07
14:10 Std 
9.
Juli
23,9 °C14,4 °C
05:58
34,0 °C
13:53
1018,7 hPa1016,6 hPa
17:53
1020,5 hPa
05:58
5,2 km/h
W-SW
25,6 km/h
14:48  
---
58 %27 %
13:08
84 %
06:43
39,5 klux100,0 klux
14:23
7:20 Std 
10.
Juli
26,7 °C17,6 °C
05:19
36,4 °C
16:44
1017,9 hPa1014,4 hPa
20:59
1020,1 hPa
05:19
4,2 km/h
W-NW
18,3 km/h
18:59  
---
57 %27 %
17:04
86 %
06:49
48 klux89 klux
13:29
12:50 Std 
11.
Juli
26,6 °C21,4 °C
06:45
33,6 °C
18:15
1015,8 hPa1014,1 hPa
18:15
1017,4 hPa
08:30
8,4 km/h
W-SW
43,5 km/h
03:00  
---
60 %39 %
18:15
80 %
07:50
41,8 klux104,0 klux
11:30
8:55 Std 
12.
Juli
25,3 °C18,2 °C
06:01
33,9 °C
13:36
1013,1 hPa1010,1 hPa
16:46
1016,6 hPa
02:16
12,8 km/h
W
47,7 km/h
14:21  
---
40 Minuten
60 %30 %
16:36
90 %
07:06
48 klux100 klux
15:01
10:54 Std 
13.
Juli
22,7 °C16,7 °C
06:02
29,0 °C
18:57
1011,8 hPa1009,5 hPa
18:57
1013,8 hPa
02:27
5,6 km/h
W-SW
21,6 km/h
16:12  
0,2 l/m²
45 Minuten
63 %39 %
19:02
89 %
07:32
36 klux112 klux
13:57
6:29 Std 
14.
Juli
24,1 °C15,4 °C
06:12
34,7 °C
17:07
1008,2 hPa1001,7 hPa
18:42
1012,0 hPa
07:07
9,8 km/h
SO
54,2 km/h
20:12  
6,8 l/m²
1:25 Stunden
63 %31 %
18:42
92 %
23:58
49 klux112 klux
12:07
11:20 Std 
15.
Juli
20,5 °C15,0 °C
23:59
26,5 °C
17:08
1013,7 hPa1008,5 hPa
00:03
1017,3 hPa
23:59
17,1 km/h
W-SW
46,9 km/h
12:23  
0,3 l/m²
50 Minuten
63 %31 %
17:33
92 %
00:08
47 klux107 klux
14:48
11:00 Std 
16.
Juli
21,8 °C11,3 °C
05:09
33,0 °C
17:59
1015,7 hPa1013,2 hPa
17:59
1017,7 hPa
05:09
8,3 km/h
W-SW
31,1 km/h
10:54  
---
56 %25 %
14:19
88 %
07:49
49 klux90 klux
13:14
12:25 Std 
17.
Juli
19,4 °C16,2 °C
09:40
25,1 °C
16:50
1019,3 hPa1016,6 hPa
01:20
1024,3 hPa
23:51
8,9 km/h
W-SW
30,6 km/h
16:50  
10,3 l/m²
5:15 Stunden
71 %43 %
16:50
95 %
11:05
31,4 klux115,0 klux
12:25
5:15 Std 
18.
Juli
18,3 °C10,1 °C
06:46
27,8 °C
18:21
1026,4 hPa1024,1 hPa
18:21
1028,7 hPa
09:01
4,3 km/h
W-NW
20,3 km/h
16:56  
---
60 %26 %
18:01
93 %
07:16
50 klux104 klux
13:46
12:55 Std 
19.
Juli
19,8 °C9,4 °C
06:07
30,5 °C
17:37
1023,1 hPa1018,7 hPa
18:47
1026,8 hPa
00:52
4,5 km/h
SO
22,0 km/h
13:22  
---
57 %27 %
17:52
88 %
06:42
50 klux92 klux
12:12
14:00 Std 
20.
Juli
21,5 °C11,7 °C
06:28
31,1 °C
17:48
1015,6 hPa1010,3 hPa
18:28
1020,5 hPa
02:38
7,1 km/h
SO
28,5 km/h
14:48  
---
56 %26 %
17:53
87 %
06:28
49,3 klux89,8 klux
12:33
13:06 Std 
21.
Juli
23,0 °C13,0 °C
06:39
33,9 °C
17:49
1008,6 hPa1005,9 hPa
17:49
1011,9 hPa
00:14
9,7 km/h
W-SW
29,2 km/h
15:19  
---
15 Minuten
58 %27 %
17:44
86 %
06:59
44,7 klux92,0 klux
15:14
9:50 Std 
22.
Juli
19,6 °C17,7 °C
23:41
22,8 °C
11:19
1013,6 hPa1010,4 hPa
00:19
1015,9 hPa
23:41
4,3 km/h
W-SW
19,1 km/h
11:24  
2,9 l/m²
4:35 Stunden
83 %66 %
11:19
95 %
23:46
17,5 klux84,2 klux
09:39
51 Min 
23.
Juli
18,0 °C14,2 °C
23:27
24,2 °C
17:06
1016,7 hPa1014,1 hPa
17:06
1019,5 hPa
23:27
5,2 km/h
W
32,6 km/h
19:16  
19,2 l/m²
6:21 Stunden
84 %49 %
16:56
97 %
07:26
22,2 klux98,9 klux
15:41
40 Min 
24.
Juli
16,3 °C12,1 °C
23:58
21,1 °C
17:37
1019,3 hPa1018,4 hPa
04:42
1020,3 hPa
10:32
13,7 km/h
W-NW
34,1 km/h
17:32  
2,0 l/m²
1:10 Stunden
77 %45 %
17:27
98 %
01:02
30,0 klux111,0 klux
12:47
4:05 Std 
25.
Juli
14,7 °C6,7 °C
06:18
23,1 °C
16:48
1017,3 hPa1014,3 hPa
16:48
1020,4 hPa
06:18
8,0 km/h
W-NW
29,3 km/h
15:38  
---
5 Minuten
69 %43 %
16:33
93 %
07:33
35 klux103 klux
15:23
5:14 Std 
26.
Juli
15,7 °C13,9 °C
05:54
20,8 °C
12:59
1013,4 hPa1010,8 hPa
18:29
1015,3 hPa
02:49
6,2 km/h
W-NW
21,0 km/h
19:19  
15,7 l/m²
6:46 Stunden
90 %67 %
12:44
98 %
23:45
20 klux112 klux
12:24
1:30 Std 
27.
Juli
17,1 °C13,9 °C
05:40
24,1 °C
18:10
1016,7 hPa1014,2 hPa
00:05
1018,4 hPa
23:46
7,6 km/h
W-NW
26,3 km/h
14:20  
0,2 l/m²
40 Minuten
83 %48 %
18:15
98 %
00:00
32 klux114 klux
13:35
5:15 Std 
28.
Juli
17,4 °C12,4 °C
04:11
24,7 °C
18:01
1015,2 hPa1012,0 hPa
18:01
1018,6 hPa
02:36
8,9 km/h
W
30,2 km/h
16:11  
2,4 l/m²
3:20 Stunden
79 %40 %
18:31
97 %
11:26
28 klux104 klux
13:01
4:20 Std 
29.
Juli
14,9 °C13,3 °C
23:58
18,7 °C
16:52
1011,8 hPa1010,6 hPa
16:52
1014,2 hPa
01:01
9,3 km/h
W-NW
28,0 km/h
00:26  
7,4 l/m²
4:40 Stunden
89 %69 %
17:02
98 %
06:42
24 klux112 klux
14:17
2:05 Std 
30.
Juli
16,5 °C12,5 °C
06:08
23,6 °C
18:28
1015,1 hPa1013,4 hPa
00:03
1017,5 hPa
23:59
6,7 km/h
W-SW
20,5 km/h
10:13  
---
77 %50 %
18:33
96 %
06:28
36 klux122 klux
14:03
6:15 Std 
31.
Juli
18,0 °C9,6 °C
05:59
26,9 °C
17:59
1016,2 hPa1013,8 hPa
17:59
1018,0 hPa
05:59
8,6 km/h
W-SW
29,0 km/h
13:49  
---
68 %36 %
17:54
95 %
07:29
48 klux115 klux
12:09
11:10 Std 



Juli
2010

Temperatur

  

Luftdruck

  

Wind

  

Regen

  

Luftfeuchte

  

Helligkeit

Sonnen-
schein

Ø

Min

Max

Ø

Min

Max

Ø

Max

Max

Ø

Min

Max

Ø

Max

Max

20,4 °C

6,7 °C

06:18 Uhr
25.07.2010

36,4 °C

16:44 Uhr
10.07.2010

1016,6 hPa

1001,7 hPa

18:42 Uhr
14.07.2010

1028,7 hPa

09:01 Uhr
18.07.2010

7,6 km/h

W-SW

54,2 km/h

20:12 Uhr
14.07.2010

19,2 l/m²

6:21 Stunden
23.07.2010

67 %

25 %

14:19 Uhr
16.07.2010

98 %

01:02 Uhr
24.07.2010

40 klux

122,0 klux

14:03 Uhr
30.07.2010

14:10 Std

am
08.07.2010

Gesamt

Gesamt

67,3 l/m²

15 Tage
37:12 h

255:55 Std


Wetter-Diagramme Juli 2010     Heinzenberg / Taunus   
TemperaturLuftfeuchte
SolarstrahlungLuftdruck
HelligkeitSonnenschein
RegenmengeRegendauer
Wind-GeschwindigkeitWind-Richtung